[[[{"header":{"parameterUnit":"kt","parameterCategory":2,"dx":1,"dy":1,"la1":30.253999710083008,"la2":30.299108505249023,"lo1":-89.0895004272461,"lo2":-89.04439544677734,"nx":28,"ny":28,"refTime":"2022-09-20T15:00:00:Z","depth":0,"parameterNumber":1,"parameterNumberName":"U-component_of_WINDS"},"data":[-1.0517,-1.0508,-1.0477,-1.0455,-1.0423,-1.0403,-1.0386,-1.0361,-1.0333,-1.0306,-1.0286,-1.0254,-1.0214,-1.0183,-1.016,-1.0146,-1.014,-1.0163,-1.0143,-1.007,-1.0058,-1.0047,-1.0047,-1.0161,-1.0161,-1.0224,-1.0224,-1.0225,-1.0477,-1.0446,-1.0423,-1.0379,-1.0361,-1.0322,-1.0285,-1.0272,-1.0255,-1.0219,-1.0195,-1.0169,-1.0144,-1.0094,-1.0066,-1.0063,-1.0043,-1.0058,-1.0059,-1.0054,-0.9975,-0.9975,-1.0075,-1.0075,-1.0075,-1.0075,-1.0075,-1.0075,-1.0397,-1.0392,-1.0346,-1.032,-1.0289,-1.0261,-1.0251,-1.021,-1.0187,-1.015,-1.0115,-1.0094,-1.0052,-0.9999,-0.9972,-0.9957,-0.9934,-0.994,-0.9942,-0.9945,-0.9955,-0.9878,-0.995,-0.9949,-0.9949,-0.9948,-0.9948,0,-1.0328,-1.0302,-1.0275,-1.0241,-1.0219,-1.0189,-1.0155,-1.0148,-1.0078,-1.0062,-1.0036,-1.0015,-0.9976,-0.9949,-0.9912,-0.9881,-0.9839,-0.9829,-0.9833,-0.9852,-0.9876,-0.9868,-0.9744,-0.9827,-0.9825,-0.9824,-0.9824,-0.9823,-1.0247,-1.0243,-1.0176,-1.0163,-1.0134,-1.0112,-1.0093,-1.003,-1.0012,-0.9962,-0.996,-0.993,-0.9903,-0.9867,-0.9817,-0.9786,-0.9765,-0.9801,-0.976,-0.978,-0.977,-0.9772,-0.9774,-0.9811,-0.9812,-0.9814,-0.9815,0,-1.0207,-1.015,-1.0131,-1.0063,-1.0047,-1.0046,-0.9989,-0.998,-0.9938,-0.9921,-0.9914,-0.9848,-0.9823,-0.9765,-0.9723,-0.9695,-0.97,-0.9678,-0.9716,-0.971,-0.9739,-0.9739,-0.9835,-0.9847,-0.9725,-0.9726,-0.9727,0,-1.0116,-1.0111,-1.0028,-1.0019,-1.0013,-0.9948,-0.9945,-0.9907,-0.9866,-0.9851,-0.9791,-0.9779,-0.9705,-0.9686,-0.9642,-0.9635,-0.9625,-0.9604,-0.9593,-0.9611,-0.9614,-0.9601,-0.9597,-0.9563,-0.9562,-0.9562,-0.9561,0,-1.0059,-1.0005,-0.9991,-0.9969,-0.9894,-0.989,-0.9858,-0.9809,-0.9789,-0.9753,-0.974,-0.9703,-0.9683,-0.9657,-0.9602,-0.9577,-0.959,-0.9543,-0.9568,-0.957,-0.9574,-0.9575,-0.9674,-0.9561,-0.9561,-0.9561,-0.956,0,-0.9977,-0.994,-0.9925,-0.9863,-0.9851,-0.984,-0.9799,-0.9776,-0.9728,-0.9699,-0.967,-0.9622,-0.9606,-0.9566,-0.9545,-0.9528,-0.9514,-0.949,-0.9491,-0.9487,-0.9443,-0.9511,-0.9609,-0.9618,-0.9484,-0.9484,-0.9483,0,-0.993,-0.9898,-0.984,-0.9827,-0.9804,-0.9737,-0.9725,-0.9682,-0.9642,-0.9618,-0.9574,-0.9546,-0.9502,-0.9485,-0.9482,-0.9435,-0.9457,-0.943,-0.9402,-0.9402,-0.942,-0.9509,-0.9539,-0.9594,-0.9474,-0.9475,-0.9475,0,-0.9885,-0.9789,-0.979,-0.9763,-0.9693,-0.9672,-0.9657,-0.9613,-0.9601,-0.9557,-0.9544,-0.9501,-0.9468,-0.9438,-0.9393,-0.9393,-0.9441,-0.9357,-0.9354,-0.9378,-0.9462,-0.9492,-0.9501,-0.9411,-0.9412,-0.9413,-0.9468,0,-0.9782,-0.9755,-0.9754,-0.9691,-0.9664,-0.965,-0.9583,-0.9564,-0.9524,-0.948,-0.9458,-0.9402,-0.9357,-0.9349,-0.9307,-0.9325,-0.9313,-0.9276,-0.9232,-0.9289,-0.9306,-0.9313,-0.9213,-0.9211,-0.921,-0.9209,0,0,-0.9753,-0.9711,-0.9644,-0.9624,-0.9597,-0.9524,-0.9516,-0.9481,-0.9411,-0.9396,-0.937,-0.9301,-0.9256,-0.9236,-0.9249,-0.9228,-0.9227,-0.9207,-0.9261,-0.9268,-0.9273,-0.9292,-0.93,-0.9206,-0.9205,-0.9205,-0.9204,0,-0.97,-0.9654,-0.9644,-0.9604,-0.9543,-0.9495,-0.9493,-0.9419,-0.939,-0.9363,-0.9304,-0.9281,-0.9223,-0.9187,-0.9161,-0.9208,-0.9164,-0.9198,-0.9249,-0.9249,-0.9257,-0.9264,-0.9285,-0.9293,-0.9201,-0.9201,-0.9201,0,-0.9647,-0.9591,-0.9577,-0.9508,-0.9466,-0.9442,-0.938,-0.9354,-0.9336,-0.9254,-0.9229,-0.9189,-0.9131,-0.9118,-0.9109,-0.9086,-0.9112,-0.9088,-0.9096,-0.9093,-0.9091,-0.9101,-0.9109,-0.8995,-0.8994,-0.8994,0,0,-0.9611,-0.9582,-0.95,-0.9491,-0.947,-0.9396,-0.9375,-0.933,-0.9278,-0.9258,-0.9204,-0.9157,-0.9124,-0.9103,-0.9067,-0.9061,-0.9045,-0.9066,-0.9076,-0.9084,-0.9086,-0.9086,-0.9096,-0.8992,-0.8992,-0.8992,0,0,-0.9593,-0.9497,-0.9463,-0.9444,-0.9397,-0.9315,-0.9313,-0.927,-0.923,-0.9224,-0.9147,-0.913,-0.9116,-0.9078,-0.9065,-0.905,-0.9008,-0.9009,-0.9076,-0.9087,-0.9096,-0.9106,-0.8992,0,0,0,0,0,-0.9502,-0.9509,-0.948,-0.9466,-0.9375,-0.9332,-0.932,-0.9256,-0.9229,-0.923,-0.9178,-0.913,-0.9056,-0.9042,-0.903,-0.9046,-0.8972,-0.8975,-0.8979,-0.9062,-0.9075,-0.9085,0,0,0,0,0,0,-0.9496,-0.9479,-0.9479,-0.9399,-0.9377,-0.9331,-0.9271,-0.9254,-0.9227,-0.9219,-0.9142,-0.9128,-0.9073,-0.9044,-0.9034,-0.905,-0.8995,-0.8973,-0.8976,-0.8979,-0.9067,-0.9077,-0.9086,0,0,0,0,0,-0.9491,-0.9477,-0.9349,-0.9398,-0.938,-0.9297,-0.927,-0.9255,-0.9233,-0.9152,-0.9136,-0.9188,-0.9075,-0.9062,-0.9038,-0.9056,-0.9001,-0.8998,-0.8975,-0.8978,-0.898,-0.9072,0,0,0,0,0,0,-0.9487,-0.9464,-0.9344,-0.9336,-0.9389,-0.9298,-0.9281,-0.9257,-0.9167,-0.9152,-0.9194,-0.9188,-0.9076,-0.9066,-0.9057,-0.9062,-0.9007,-0.9003,-0.9001,-0.8977,-0.8979,-0.8981,0,0,0,0,0,0,-0.9471,-0.9458,-0.934,-0.9332,-0.9323,-0.93,-0.9285,-0.9254,-0.9167,-0.9214,-0.9206,-0.9192,-0.9091,-0.9069,-0.9061,-0.9015,-0.9011,-0.9007,-0.9005,-0.9003,-0.8979,-0.898,0,0,0,0,0,0,-0.9464,-0.9453,-0.9334,-0.9327,-0.9318,-0.9226,-0.9271,-0.9182,-0.9161,-0.9219,-0.9157,-0.9155,-0.9095,-0.9086,-0.9065,-0.9023,-0.9017,-0.9011,-0.9008,-0.9007,-0.9006,0,0,0,0,0,0,0,-0.9459,-0.9548,-0.939,-0.9322,-0.9315,-0.9263,-0.9261,-0.9259,-0.916,-0.9159,-0.9157,-0.9156,-0.903,-0.9026,-0.9022,-0.9029,0,0,-0.9011,-0.9009,0,0,0,0,0,0,0,0,-0.9552,-0.9549,-0.939,-0.9388,-0.9387,-0.9263,-0.9261,-0.926,-0.916,-0.9159,-0.9158,-0.9156,-0.9029,-0.9026,-0.9023,0,0,0,0,0,0,0,0,0,0,0,0,0,0,0,-0.939,-0.9388,0,-0.9263,-0.9261,-0.926,-0.916,-0.9159,-0.9158,-0.9157,-0.9028,-0.9026,-0.9023,0,0,0,0,0,0,0,0,0,0,0,0,0,0,0,0,0,0,0,0,0,0,0,0,0,0,0,0,0,0,0,0,0,0,0,0,0,0,0,0,0,0,0,0,0,0,0,0,0,0,0,0,0,0,0,0,0,0,0,0,0,0,0,0,0,0,0,0,0]}],[{"header":{"parameterUnit":"kt","parameterCategory":2,"dx":1,"dy":1,"la1":30.253999710083008,"la2":30.299108505249023,"lo1":-89.0895004272461,"lo2":-89.04439544677734,"nx":28,"ny":28,"refTime":"2022-09-20T15:00:00:Z","depth":0,"parameterNumber":2,"parameterNumberName":"V-component_of_WINDS"},"data":[5.5548,5.5518,5.5489,5.544,5.5406,5.5366,5.5342,5.5308,5.5273,5.522,5.5183,5.5149,5.51,5.5048,5.5005,5.499,5.4973,5.4983,5.4964,5.4949,5.4945,5.4941,5.4947,5.498,5.498,5.4982,5.4982,5.4982,5.5538,5.5505,5.5471,5.5419,5.5388,5.5362,5.5317,5.5292,5.5257,5.5214,5.5177,5.5127,5.5083,5.5029,5.4981,5.4963,5.4946,5.4951,5.4951,5.4944,5.4928,5.4934,5.4966,5.4966,5.4966,5.4966,5.4966,5.4965,5.5511,5.5494,5.5446,5.5409,5.5374,5.5339,5.5316,5.5276,5.5241,5.519,5.5161,5.512,5.5069,5.4996,5.4964,5.4928,5.4916,5.4912,5.4911,5.491,5.4913,5.4911,5.4919,5.4918,5.4918,5.4918,5.4918,0,5.5482,5.5459,5.5425,5.5383,5.5354,5.5317,5.5278,5.5264,5.5204,5.5177,5.5135,5.5106,5.5047,5.5002,5.495,5.4917,5.4884,5.4878,5.4874,5.4887,5.4905,5.4893,5.4866,5.4877,5.4877,5.4877,5.4876,5.4876,5.545,5.5435,5.5371,5.5351,5.5323,5.5291,5.5265,5.5214,5.5189,5.5132,5.5118,5.5074,5.5036,5.4972,5.4922,5.4877,5.486,5.4867,5.4853,5.4866,5.4857,5.4858,5.4855,5.4871,5.4872,5.4872,5.4873,0,5.5435,5.5389,5.5355,5.5293,5.5277,5.5262,5.5207,5.5187,5.5151,5.5117,5.5106,5.5047,5.5006,5.4955,5.4898,5.4872,5.4841,5.4827,5.4858,5.4852,5.4851,5.4851,5.4864,5.4861,5.4828,5.4829,5.4829,0,5.5389,5.537,5.5302,5.5285,5.5262,5.5211,5.5189,5.5155,5.5112,5.5085,5.5042,5.5017,5.4956,5.4923,5.4886,5.4852,5.4842,5.4819,5.4809,5.4822,5.4825,5.4806,5.4804,5.479,5.479,5.479,5.479,0,5.5368,5.5311,5.5283,5.5262,5.5194,5.5181,5.5152,5.5104,5.5079,5.5039,5.5022,5.4978,5.4954,5.4919,5.4871,5.4863,5.483,5.4809,5.4806,5.4808,5.4801,5.4802,5.4826,5.479,5.479,5.479,5.479,0,5.5323,5.5286,5.5254,5.5195,5.5182,5.5164,5.5118,5.5091,5.5044,5.5019,5.4987,5.4951,5.492,5.4902,5.4857,5.486,5.4837,5.4814,5.4812,5.4805,5.4787,5.4805,5.4835,5.4836,5.4799,5.48,5.48,0,5.531,5.5266,5.5223,5.5193,5.5166,5.5118,5.5097,5.5057,5.5023,5.4993,5.4954,5.492,5.4897,5.4879,5.4863,5.4821,5.4818,5.4821,5.4773,5.4772,5.4786,5.4814,5.483,5.4835,5.48,5.48,5.48,0,5.5294,5.5214,5.5212,5.5185,5.5127,5.5104,5.508,5.5036,5.5018,5.4979,5.4955,5.4908,5.4887,5.4859,5.4825,5.4812,5.4819,5.4791,5.4789,5.4796,5.4797,5.4813,5.4814,5.4798,5.4798,5.4798,5.48,0,5.5233,5.5206,5.5199,5.5144,5.5119,5.5099,5.5048,5.5028,5.4998,5.4963,5.4929,5.4883,5.4838,5.4827,5.4798,5.4785,5.4779,5.4758,5.4736,5.4755,5.4754,5.4754,5.4741,5.474,5.4739,5.4739,0,0,5.523,5.5191,5.5145,5.5121,5.5097,5.5049,5.5031,5.5002,5.4944,5.4927,5.4915,5.4841,5.4805,5.4769,5.4771,5.4753,5.4745,5.4741,5.4747,5.4748,5.4749,5.4749,5.475,5.4737,5.4737,5.4737,5.4736,0,5.5197,5.5165,5.515,5.5117,5.5069,5.5033,5.5029,5.4972,5.4948,5.4916,5.4875,5.4849,5.4793,5.4759,5.4734,5.4744,5.4714,5.4735,5.4757,5.4741,5.4743,5.4745,5.4746,5.4747,5.4734,5.4735,5.4735,0,5.517,5.5129,5.5117,5.5063,5.503,5.5004,5.4968,5.4943,5.4922,5.4869,5.4838,5.4806,5.4757,5.4731,5.4717,5.4705,5.4689,5.4686,5.469,5.4686,5.4668,5.4671,5.4674,5.4641,5.464,5.464,0,0,5.5148,5.5124,5.5064,5.5052,5.5034,5.4981,5.4963,5.4932,5.489,5.4874,5.4832,5.4792,5.4758,5.4737,5.4703,5.4683,5.4667,5.4677,5.4681,5.4685,5.4684,5.4667,5.467,5.464,5.464,5.464,0,0,5.5137,5.5068,5.5046,5.5026,5.4989,5.4928,5.4921,5.4893,5.4858,5.4854,5.48,5.4787,5.4762,5.4732,5.4733,5.4694,5.4674,5.4672,5.4714,5.4719,5.4724,5.473,5.4689,0,0,0,0,0,5.5077,5.5076,5.5058,5.5047,5.4978,5.4939,5.4929,5.4885,5.4871,5.4867,5.4827,5.4797,5.4721,5.472,5.4709,5.4709,5.4634,5.4635,5.4636,5.4685,5.4691,5.4696,0,0,0,0,0,0,5.5073,5.506,5.5057,5.4998,5.4982,5.4938,5.4904,5.4892,5.487,5.4865,5.4806,5.4795,5.4756,5.4722,5.4713,5.4714,5.4692,5.4635,5.4636,5.4636,5.4687,5.4692,5.4696,0,0,0,0,0,5.5069,5.5058,5.4959,5.4997,5.4983,5.4924,5.4904,5.4894,5.4876,5.4815,5.4804,5.4845,5.4757,5.4746,5.4716,5.4719,5.4698,5.4695,5.4635,5.4636,5.4637,5.4689,0,0,0,0,0,0,5.5066,5.5048,5.4955,5.4949,5.4995,5.4926,5.4914,5.4895,5.4826,5.4815,5.4852,5.4848,5.4758,5.4749,5.4741,5.4723,5.4703,5.47,5.4698,5.4636,5.4636,5.4637,0,0,0,0,0,0,5.5053,5.5043,5.4952,5.4952,5.4945,5.4927,5.4917,5.4885,5.4826,5.4866,5.4861,5.4851,5.477,5.4752,5.4745,5.4698,5.4707,5.4703,5.4701,5.47,5.4636,5.4637,0,0,0,0,0,0,5.5048,5.5039,5.4953,5.4948,5.4943,5.4872,5.4899,5.483,5.4827,5.487,5.4826,5.4825,5.4773,5.4765,5.4748,5.4704,5.4699,5.4706,5.4704,5.4703,5.4702,0,0,0,0,0,0,0,5.5044,5.5113,5.4991,5.4945,5.494,5.4894,5.4893,5.4891,5.4827,5.4827,5.4826,5.4825,5.4724,5.4721,5.4718,5.4709,0,0,5.4707,5.4705,0,0,0,0,0,0,0,0,5.5115,5.5113,5.4991,5.499,5.4989,5.4894,5.4893,5.4891,5.4827,5.4827,5.4826,5.4826,5.4724,5.4721,5.4718,0,0,0,0,0,0,0,0,0,0,0,0,0,0,0,5.4991,5.499,0,5.4894,5.4893,5.4892,5.4827,5.4827,5.4826,5.4826,5.4723,5.472,5.4718,0,0,0,0,0,0,0,0,0,0,0,0,0,0,0,0,0,0,0,0,0,0,0,0,0,0,0,0,0,0,0,0,0,0,0,0,0,0,0,0,0,0,0,0,0,0,0,0,0,0,0,0,0,0,0,0,0,0,0,0,0,0,0,0,0,0,0,0,0]}]]]